Starlink 33816

operational
NORAD ID: 63677 Int'l Des: 2025-085 Owner: SPXS Country: US Constellation: starlink
LEOCIRCULAR

Starlink 33816について

説明を読み込み中...

リアルタイム位置

3D地球を読み込み中...

次回通過

高度履歴

Altitude vs Time

uPlot chart will show altitude changes over time

軌道要素

1 63677U 25085P 25303.67142792 .00055050 00000-0 19941-2 0 9991
2 63677 43.0014 45.3359 0000651 328.4878 31.5934 15.27597824 29088
Epoch: Oct 30, 2025 • Age: 19 hours

現在のステータス

高度 490.4 km
速度 7.62 km/s
衛星直下点 -30.03°S, 161.8°E
打ち上げ日 Apr 28, 2025
運用期間 0.5 years
タイプ internet

技術仕様

分類 Payload
質量 575.00 kg
乾燥質量 530.00 kg
総質量 575.00 kg
長さ 0.30 m
直径 4.10 m
スパン 29.00 m
形状 Box + pan
製造者 SPXS
バスタイプ Starlink V2MO
フェーズステータス In Orbit
所有者/国 SPXS/US

大規模コンステレーション

Loading constellations...